Main page
METAR-TAF:

METAR-TAF

Airports :

Khorramabad Airport

Khorramabad, Iran

latitude: 33-26-11N, longitude: 048-17-09E, elevation: 1155 m

Current weather observation

The report was made 1 hour and 3 minutes ago, at 23:50 UTC
Wind 6 kt from the Southeast
Temperature 5°C
Humidity 93%
Pressure 1021 hPa
Visibility 10 km or more
no clouds below 1500 m and no cumulonimbus

METAR: OICK 202350Z 13006KT CAVOK 05/04 Q1021

Time: 04:23 (00:53 UTC)


TAF: missing

Weather observations and forecasts of more than 4000 airports (METAR and TAF reports).

The available stations are represented by yellow and red dots on the map.

Hover mouse over dot to see the name of the station.

Then click to see weather observations and forecasts.

To change the map : click on the green buttons with a black cross to zoom in, on the green button with a dash to zoom out, or on the green arrows for adjacent maps.


METAR-TAF: